"startDT [UTC]","vpos","CH4 [ppm]","stdev(CH4) [ppm]","CO2 [ppm]","stdev(CO2) [ppm]","H2O [ppm]","stdev(H2O)","p_LGR [torr]","T_LGR [C]","mt1_LGR [us]","mt2_LGR [us]","T_ECpre [C]","T_EC1 [C]","T_EC2 [C]","p_inlet [hPa]","p_in [hPa]","p_out [hPa]","T_inlet [C]","RH_inlet [%]","dwpt_inlet [C]","T_vent [C]","RH_vent [%]","dwpt_vent [C]","flow_vent [l min-1]","flow_inlet [l min-1]","dwpt_sample [C]","T_room [C]"
2012-06-03 00:00:00,0.0,,,,,,,,,,,0.91,-23.76,-27.80,-48,524,-919,16.7,24.8,-3.5,17.1,2.1,-32.3,5.73,2.44,-31.5,23.8
2012-06-03 00:01:00,0.0,1.8917,0.0010,401.49,0.20,-0.6,2.3,138.05,30.42,24.65,36.48,0.91,-24.16,-27.81,-48,524,-919,16.7,25.0,-3.4,17.1,2.1,-32.3,5.73,2.44,-31.5,23.8
2012-06-03 00:02:00,0.0,1.8918,0.0009,401.46,0.18,-0.3,3.5,138.04,30.42,24.64,36.48,0.94,-24.54,-27.82,-48,524,-919,16.7,25.2,-3.3,17.1,2.1,-32.2,5.73,2.44,-31.5,23.8
2012-06-03 00:03:00,0.0,1.8922,0.0007,401.39,0.18,-1.0,0.0,138.04,30.43,24.64,36.48,0.96,-24.90,-27.83,-48,524,-918,16.7,25.2,-3.3,17.1,2.1,-32.2,5.73,2.44,-31.5,23.8
2012-06-03 00:04:00,0.0,,,,,,,,,,,1.00,-25.23,-27.84,-48,524,-918,16.7,25.1,-3.4,17.1,2.1,-32.2,5.73,2.45,-31.5,23.8
2012-06-03 00:05:00,0.0,,,,,,,,,,,0.98,-25.55,-27.84,-48,524,-918,16.7,24.9,-3.5,17.1,2.1,-32.3,5.73,2.44,-31.5,23.8
2012-06-03 00:06:00,0.0,,,,,,,,,,,0.93,-25.85,-27.85,-48,524,-918,16.7,24.9,-3.5,17.1,2.1,-32.2,5.73,2.45,-31.5,23.8
2012-06-03 00:07:00,0.0,,,,,,,,,,,0.90,-26.13,-27.87,-48,524,-919,16.7,25.1,-3.4,17.1,2.1,-32.2,5.73,2.44,-31.5,23.7
2012-06-03 00:08:00,0.0,,,,,,,,,,,0.92,-26.40,-27.88,-48,524,-919,16.7,25.0,-3.4,17.1,2.1,-32.3,5.73,2.44,-31.5,23.7
2012-06-03 00:09:00,0.0,,,,,,,,,,,0.94,-26.64,-27.88,-48,524,-918,16.7,25.1,-3.4,17.1,2.1,-32.3,5.73,2.45,-31.5,23.8
2012-06-03 00:10:00,0.0,,,,,,,,,,,0.94,-26.87,-27.89,-48,524,-918,16.7,25.1,-3.4,17.1,2.1,-32.3,5.73,2.45,-31.5,23.7
2012-06-03 00:11:00,0.0,,,,,,,,,,,0.98,-27.09,-27.90,-48,524,-918,16.7,25.1,-3.4,17.1,2.1,-32.3,5.73,2.45,-31.5,23.7
2012-06-03 00:12:00,0.0,,,,,,,,,,,0.99,-27.29,-27.90,-48,524,-918,16.7,25.1,-3.4,17.1,2.1,-32.3,5.73,2.45,-31.5,23.7
2012-06-03 00:13:00,0.0,,,,,,,,,,,0.95,-27.49,-27.91,-48,524,-918,16.7,25.1,-3.4,17.1,2.1,-32.3,5.73,2.45,-31.5,23.7
2012-06-03 00:14:00,0.0,,,,,,,,,,,0.91,-27.67,-27.92,-48,524,-919,16.7,25.0,-3.4,17.1,2.1,-32.3,5.73,2.45,-31.5,23.7
2012-06-03 00:15:00,0.0,,,,,,,,,,,0.91,-27.84,-27.92,-48,524,-919,16.7,25.0,-3.4,17.1,2.1,-32.3,5.73,2.45,-31.5,23.7
2012-06-03 00:16:00,0.0,,,,,,,,,,,0.97,-27.66,-27.92,-48,524,-918,16.7,25.3,-3.3,17.1,2.1,-32.4,5.73,2.45,-31.5,23.7
2012-06-03 00:17:00,0.0,,,,,,,,,,,0.91,-27.51,-27.93,-48,524,-918,16.7,25.5,-3.2,17.1,2.1,-32.4,5.73,2.45,-31.5,23.7
2012-06-03 00:18:00,0.0,,,,,,,,,,,0.92,-27.63,-27.94,-48,524,-918,16.6,25.5,-3.2,17.1,2.1,-32.4,5.73,2.44,-31.5,23.7
2012-06-03 00:19:00,0.0,,,,,,,,,,,0.94,-27.78,-27.94,-48,524,-918,16.7,25.4,-3.3,17.1,2.1,-32.4,5.73,2.44,-31.5,23.7
2012-06-03 00:20:00,0.0,,,,,,,,,,,0.90,-27.88,-27.95,-48,524,-919,16.7,25.3,-3.3,17.1,2.1,-32.4,5.73,2.45,-31.5,23.7
2012-06-03 00:21:00,0.0,,,,,,,,,,,0.96,-27.55,-27.95,-48,524,-919,16.6,25.4,-3.2,17.1,2.1,-32.4,5.73,2.44,-31.5,23.7
2012-06-03 00:22:00,0.0,,,,,,,,,,,0.97,-27.57,-27.96,-48,524,-919,16.7,25.5,-3.2,17.1,2.1,-32.4,5.73,2.44,-31.6,23.7
2012-06-03 00:23:00,0.0,,,,,,,,,,,0.98,-27.71,-27.97,-48,524,-918,16.7,25.5,-3.2,17.1,2.1,-32.4,5.73,2.44,-31.6,23.7
2012-06-03 00:24:00,0.0,,,,,,,,,,,0.97,-27.87,-27.97,-48,524,-918,16.6,25.4,-3.3,17.1,2.1,-32.4,5.73,2.45,-31.5,23.7
2012-06-03 00:25:00,0.0,,,,,,,,,,,0.84,-27.80,-27.97,-48,524,-918,16.6,25.4,-3.3,17.1,2.1,-32.4,5.73,2.45,-31.5,23.8
2012-06-03 00:26:00,0.0,,,,,,,,,,,0.74,-27.57,-27.28,-48,524,-919,16.6,25.5,-3.2,17.1,2.1,-32.4,5.73,2.45,-31.5,23.8
2012-06-03 00:27:00,0.0,,,,,,,,,,,0.89,-27.66,-25.49,-48,524,-919,16.7,25.4,-3.2,17.1,2.1,-32.0,5.73,2.45,-31.5,23.7
2012-06-03 00:28:00,0.0,,,,,,,,,,,0.96,-27.74,-23.51,-48,524,-919,16.6,25.5,-3.2,17.1,2.3,-31.2,5.73,2.45,-31.5,23.7
2012-06-03 00:29:00,0.0,,,,,,,,,,,0.73,-27.78,-21.54,-48,524,-918,16.6,25.6,-3.2,17.1,2.5,-30.6,5.73,2.45,-31.5,23.6
2012-06-03 00:30:00,0.0,,,,,,,,,,,0.82,-27.80,-19.66,-48,524,-918,16.6,25.6,-3.1,17.1,2.5,-30.2,5.73,2.45,-31.5,23.7
2012-06-03 00:31:00,0.0,,,,,,,,,,,1.07,-46.86,-37.01,-48,524,-918,16.6,25.8,-3.1,17.0,2.6,-30.2,5.42,2.49,-35.3,23.7
2012-06-03 00:32:00,0.0,,,,,,,,,,,0.90,-27.80,-16.15,-48,524,-919,16.6,25.7,-3.1,17.0,2.6,-30.2,5.73,2.45,-31.5,23.7
2012-06-03 00:33:00,0.0,,,,,,,,,,,0.73,-27.79,-14.54,-48,524,-919,16.6,25.9,-3.0,17.0,2.5,-30.3,5.73,2.45,-31.6,23.7
2012-06-03 00:34:00,0.0,,,,,,,,,,,0.86,-27.78,-13.01,-48,524,-919,16.6,25.8,-3.1,17.0,2.5,-30.3,5.73,2.45,-31.6,23.7
2012-06-03 00:35:00,0.0,,,,,,,,,,,0.95,-27.77,-11.55,-48,524,-918,16.6,25.6,-3.2,17.0,2.5,-30.4,5.73,2.45,-31.6,23.7
2012-06-03 00:36:00,0.0,,,,,,,,,,,0.85,-27.75,-10.17,-48,524,-918,16.6,25.7,-3.2,17.0,2.5,-30.5,5.73,2.45,-31.6,23.7
2012-06-03 00:37:00,0.0,,,,,,,,,,,0.76,-27.74,-8.87,-48,524,-918,16.6,25.8,-3.1,17.0,2.5,-30.6,5.73,2.45,-31.6,23.6
2012-06-03 00:38:00,0.0,,,,,,,,,,,0.86,-27.73,-7.63,-48,524,-919,16.6,25.7,-3.2,17.0,2.4,-30.7,5.73,2.44,-31.6,23.6
2012-06-03 00:39:00,0.0,,,,,,,,,,,0.95,-27.71,-6.44,-48,524,-919,16.6,25.5,-3.2,17.0,2.4,-30.8,5.73,2.45,-31.6,23.6
2012-06-03 00:40:00,0.0,,,,,,,,,,,0.88,-27.70,-5.32,-48,524,-919,16.6,25.6,-3.2,17.0,2.4,-30.8,5.73,2.45,-31.6,23.7
2012-06-03 00:41:00,0.0,,,,,,,,,,,0.76,-27.68,-4.26,-48,524,-918,16.6,25.8,-3.1,17.0,2.4,-30.9,5.73,2.44,-31.6,23.6
2012-06-03 00:42:00,0.0,,,,,,,,,,,0.85,-27.66,-3.24,-48,524,-918,16.6,25.8,-3.1,17.0,2.4,-30.9,5.73,2.45,-31.5,23.6
2012-06-03 00:43:00,0.0,,,,,,,,,,,0.93,-27.65,-2.27,-48,524,-918,16.6,25.8,-3.1,17.0,2.4,-31.0,5.73,2.44,-31.6,23.6
2012-06-03 00:44:00,0.0,,,,,,,,,,,0.93,-27.63,-1.35,-48,524,-918,16.5,25.8,-3.1,17.0,2.4,-31.0,5.73,2.45,-31.6,23.6
2012-06-03 00:45:00,0.0,,,,,,,,,,,0.77,-27.61,-0.48,-48,524,-919,16.6,25.8,-3.1,17.0,2.4,-31.0,5.73,2.45,-31.6,23.7
2012-06-03 00:46:00,0.0,,,,,,,,,,,0.84,-27.59,0.35,-48,524,-919,16.6,26.0,-3.0,17.0,2.3,-31.1,5.73,2.45,-31.5,23.7
2012-06-03 00:47:00,0.0,,,,,,,,,,,0.89,-27.58,1.14,-48,524,-918,16.6,26.0,-3.0,17.0,2.3,-31.2,5.73,2.45,-31.6,23.6
2012-06-03 00:48:00,0.0,,,,,,,,,,,0.95,-27.57,1.88,-48,524,-918,16.5,25.9,-3.1,17.0,2.3,-31.2,5.73,2.45,-31.5,23.6
2012-06-03 00:49:00,0.0,,,,,,,,,,,0.88,-27.55,2.54,-48,524,-918,16.5,25.8,-3.1,16.9,2.3,-31.3,5.73,2.45,-31.6,23.6
2012-06-03 00:50:00,0.0,,,,,,,,,,,0.77,-27.54,2.99,-48,524,-918,16.5,26.0,-3.1,16.9,2.3,-31.3,5.73,2.45,-31.6,23.6
2012-06-03 00:51:00,0.0,,,,,,,,,,,0.86,-27.53,3.22,-48,524,-918,16.5,26.0,-3.1,16.9,2.3,-31.3,5.73,2.45,-31.6,23.6
2012-06-03 00:52:00,0.0,,,,,,,,,,,0.90,-27.51,3.53,-48,524,-919,16.5,26.0,-3.1,16.9,2.3,-31.3,5.73,2.46,-31.6,23.7
2012-06-03 00:53:00,0.0,,,,,,,,,,,0.96,-27.50,4.02,-48,524,-919,16.5,26.0,-3.1,16.9,2.3,-31.3,5.73,2.45,-31.6,23.6
2012-06-03 00:54:00,0.0,,,,,,,,,,,0.84,-27.49,4.62,-48,524,-918,16.5,26.2,-3.0,16.9,2.3,-31.3,5.73,2.45,-31.6,23.7
2012-06-03 00:55:00,0.0,,,,,,,,,,,0.80,-27.47,5.19,-48,524,-918,16.5,26.1,-3.0,16.9,2.3,-31.5,5.73,2.45,-31.6,23.6
2012-06-03 00:56:00,0.0,,,,,,,,,,,0.85,-27.45,5.73,-48,524,-918,16.5,26.1,-3.0,16.9,2.3,-31.5,5.73,2.46,-31.6,23.6
2012-06-03 00:57:00,0.0,,,,,,,,,,,0.91,-27.44,6.24,-48,524,-918,16.5,26.2,-3.0,16.9,2.3,-31.5,5.73,2.45,-31.6,23.6
2012-06-03 00:58:00,0.0,,,,,,,,,,,0.95,-27.43,6.73,-48,524,-918,16.5,26.3,-2.9,16.9,2.3,-31.4,5.73,2.45,-31.6,23.6
2012-06-03 00:59:00,0.0,,,,,,,,,,,0.87,-27.42,7.18,-48,524,-919,16.5,26.5,-2.8,16.9,2.3,-31.5,5.73,2.45,-31.6,23.6
2012-06-03 01:00:00,0.0,,,,,,,,,,,0.79,-27.41,7.62,-48,524,-919,16.5,26.6,-2.8,16.9,2.3,-31.5,5.73,2.45,-31.5,23.6
2012-06-03 01:01:00,0.0,1.8917,0.0010,401.49,0.20,-0.6,2.3,138.05,30.42,24.65,36.48,0.85,-27.39,8.02,-48,524,-918,16.5,26.6,-2.8,16.9,2.3,-31.4,5.73,2.45,-31.6,23.6
2012-06-03 01:02:00,0.0,1.8918,0.0009,401.46,0.18,-0.3,3.5,138.04,30.42,24.64,36.48,0.91,-27.38,8.42,-48,524,-918,16.5,26.6,-2.8,16.9,2.3,-31.4,5.73,2.45,-31.6,23.6
2012-06-03 01:03:00,0.0,1.8922,0.0007,401.39,0.18,-1.0,0.0,138.04,30.43,24.64,36.48,0.94,-27.37,8.81,-48,524,-918,16.5,26.5,-2.8,16.9,2.3,-31.3,5.73,2.44,-31.6,23.6
2012-06-03 01:04:00,0.0,,,,,,,,,,,0.92,-27.36,9.18,-48,524,-918,16.5,26.4,-2.9,16.9,2.3,-31.4,5.73,2.44,-31.6,23.6
2012-06-03 01:05:00,0.0,,,,,,,,,,,0.82,-27.35,9.55,-48,524,-918,16.5,26.5,-2.8,16.9,2.3,-31.3,5.73,2.44,-31.5,23.6
2012-06-03 01:06:00,0.0,,,,,,,,,,,0.82,-27.34,9.89,-48,524,-919,16.5,26.4,-2.9,16.9,2.3,-31.4,5.73,2.45,-31.5,23.6
2012-06-03 01:07:00,0.0,,,,,,,,,,,0.88,-27.33,10.23,-48,524,-919,16.4,26.6,-2.8,16.9,2.3,-31.3,5.73,2.45,-31.5,23.6
2012-06-03 01:08:00,0.0,,,,,,,,,,,0.91,-27.32,10.55,-48,524,-919,16.4,26.6,-2.8,16.9,2.3,-31.3,5.73,2.45,-31.5,23.6
2012-06-03 01:09:00,0.0,,,,,,,,,,,0.95,-27.31,10.87,-48,524,-918,16.4,26.5,-2.8,16.9,2.3,-31.3,5.73,2.45,-31.5,23.6
2012-06-03 01:10:00,0.0,,,,,,,,,,,0.87,-27.30,11.17,-48,524,-918,16.5,26.7,-2.7,16.9,2.3,-31.3,5.73,2.45,-31.5,23.6
2012-06-03 01:11:00,0.0,,,,,,,,,,,0.81,-27.30,11.46,-48,524,-918,16.4,26.9,-2.7,16.9,2.3,-31.3,5.73,2.45,-31.5,23.6
2012-06-03 01:12:00,0.0,,,,,,,,,,,0.85,-27.29,11.74,-48,524,-918,16.4,26.9,-2.7,16.9,2.3,-31.3,5.73,2.45,-31.5,23.6
2012-06-03 01:13:00,0.0,,,,,,,,,,,0.89,-27.28,12.00,-48,524,-918,16.4,27.0,-2.6,16.9,2.3,-31.3,5.73,2.45,-31.5,23.6
2012-06-03 01:14:00,0.0,,,,,,,,,,,0.93,-27.28,12.26,-48,524,-919,16.4,26.9,-2.7,16.9,2.3,-31.3,5.73,2.45,-31.4,23.6
2012-06-03 01:15:00,0.0,,,,,,,,,,,0.95,-27.27,12.51,-48,524,-919,16.4,26.7,-2.8,16.9,2.3,-31.3,5.73,2.46,-31.4,23.6
2012-06-03 01:16:00,0.0,,,,,,,,,,,0.86,-27.26,12.74,-48,524,-918,16.4,26.7,-2.8,16.9,2.3,-31.3,5.73,2.45,-31.4,23.6
2012-06-03 01:17:00,0.0,,,,,,,,,,,0.81,-27.26,12.97,-48,524,-918,16.5,26.7,-2.8,16.9,2.3,-31.3,5.73,2.45,-31.4,23.6
2012-06-03 01:18:00,0.0,,,,,,,,,,,0.88,-27.25,13.19,-48,524,-918,16.4,26.7,-2.8,16.9,2.3,-31.3,5.73,2.45,-31.4,23.6
2012-06-03 01:19:00,0.0,,,,,,,,,,,0.88,-27.24,13.40,-48,524,-918,16.4,26.7,-2.7,16.9,2.3,-31.3,5.73,2.45,-31.4,23.6
2012-06-03 01:20:00,0.0,,,,,,,,,,,0.93,-27.24,13.60,-48,524,-918,16.4,26.7,-2.8,16.9,2.3,-31.4,5.73,2.45,-31.4,23.6
2012-06-03 01:21:00,0.0,,,,,,,,,,,0.95,-27.23,13.80,-48,524,-919,16.5,26.7,-2.8,16.9,2.3,-31.4,5.73,2.45,-31.4,23.6
2012-06-03 01:22:00,0.0,,,,,,,,,,,0.91,-27.23,13.99,-47,524,-919,16.5,26.7,-2.7,16.9,2.3,-31.3,5.73,2.45,-31.4,23.6
2012-06-03 01:23:00,0.0,,,,,,,,,,,0.81,-27.23,14.16,-47,524,-919,16.5,26.9,-2.6,16.9,2.3,-31.3,5.73,2.45,-31.4,23.7
2012-06-03 01:24:00,0.0,,,,,,,,,,,0.84,-27.22,14.33,-48,524,-919,16.5,27.0,-2.6,16.9,2.3,-31.3,5.73,2.45,-31.4,23.7
2012-06-03 01:25:00,0.0,,,,,,,,,,,0.88,-27.22,14.49,-48,524,-918,16.5,26.8,-2.7,16.9,2.3,-31.3,5.73,2.44,-31.4,23.6
2012-06-03 01:26:00,0.0,,,,,,,,,,,0.91,-27.21,14.65,-48,524,-918,16.5,26.8,-2.7,16.9,2.3,-31.3,5.73,2.45,-31.4,23.6
2012-06-03 01:27:00,0.0,,,,,,,,,,,0.95,-27.21,14.80,-48,524,-918,16.5,26.8,-2.7,16.9,2.3,-31.3,5.73,2.44,-31.4,23.6
2012-06-03 01:28:00,0.0,,,,,,,,,,,0.92,-27.20,14.94,-48,524,-918,16.4,26.9,-2.7,16.9,2.3,-31.3,5.73,2.45,-31.4,23.6
2012-06-03 01:29:00,0.0,,,,,,,,,,,0.83,-27.20,15.07,-48,524,-918,16.5,26.9,-2.7,16.9,2.3,-31.3,5.73,2.45,-31.4,23.6
2012-06-03 01:30:00,0.0,,,,,,,,,,,0.85,-27.19,15.20,-48,524,-919,16.4,26.9,-2.7,16.9,2.3,-31.4,5.73,2.45,-31.4,23.6
2012-06-03 01:31:00,0.0,,,,,,,,,,,0.87,-27.19,15.33,-48,524,-919,16.4,27.0,-2.6,16.9,2.3,-31.4,5.73,2.45,-31.4,23.6
2012-06-03 01:32:00,0.0,,,,,,,,,,,0.90,-27.18,15.45,-47,524,-919,16.4,27.0,-2.6,16.9,2.3,-31.3,5.73,2.45,-31.4,23.6
2012-06-03 01:33:00,0.0,,,,,,,,,,,0.94,-27.18,15.56,-48,524,-918,16.4,27.1,-2.6,16.9,2.3,-31.3,5.73,2.45,-31.4,23.6
2012-06-03 01:34:00,0.0,,,,,,,,,,,0.95,-27.18,15.67,-47,524,-918,16.4,27.1,-2.6,16.9,2.3,-31.3,5.73,2.45,-31.4,23.6
2012-06-03 01:35:00,0.0,,,,,,,,,,,0.89,-27.18,15.77,-48,524,-918,16.4,27.1,-2.5,16.9,2.3,-31.4,5.73,2.45,-31.4,23.6
2012-06-03 01:36:00,0.0,,,,,,,,,,,0.83,-27.17,15.87,-48,524,-918,16.4,27.1,-2.5,16.9,2.3,-31.3,5.73,2.45,-31.4,23.6
2012-06-03 01:37:00,0.0,,,,,,,,,,,0.85,-27.17,15.96,-48,524,-918,16.4,27.0,-2.6,16.9,2.3,-31.4,5.73,2.45,-31.4,23.6
2012-06-03 01:38:00,0.0,,,,,,,,,,,0.87,-27.17,16.05,-48,524,-919,16.4,26.8,-2.7,16.9,2.3,-31.4,5.73,2.46,-31.4,23.6
2012-06-03 01:39:00,0.0,,,,,,,,,,,0.91,-27.17,16.13,-48,524,-919,16.4,26.9,-2.7,16.9,2.3,-31.3,5.73,2.45,-31.4,23.6
2012-06-03 01:40:00,0.0,,,,,,,,,,,0.94,-27.16,16.22,-48,524,-919,16.4,26.9,-2.7,16.9,2.3,-31.3,5.73,2.45,-31.3,23.6
2012-06-03 01:41:00,0.0,,,,,,,,,,,0.94,-27.16,16.30,-47,524,-919,16.4,26.8,-2.7,16.9,2.3,-31.4,5.73,2.45,-31.3,23.6
2012-06-03 01:42:00,0.0,,,,,,,,,,,0.85,-27.16,16.37,-47,524,-918,16.4,27.0,-2.6,16.9,2.3,-31.4,5.73,2.46,-31.4,23.6
2012-06-03 01:43:00,0.0,,,,,,,,,,,0.86,-27.16,16.45,-48,524,-918,16.4,27.1,-2.6,16.9,2.3,-31.3,5.73,2.45,-31.3,23.6
2012-06-03 01:44:00,0.0,,,,,,,,,,,0.86,-27.16,16.51,-47,524,-918,16.4,26.9,-2.7,16.9,2.3,-31.3,5.73,2.45,-31.3,23.6
2012-06-03 01:45:00,0.0,,,,,,,,,,,0.89,-27.16,16.58,-47,524,-918,16.4,27.1,-2.6,16.9,2.3,-31.3,5.73,2.46,-31.3,23.6
2012-06-03 01:46:00,0.0,,,,,,,,,,,0.93,-27.16,16.64,-47,524,-918,16.4,27.1,-2.5,16.9,2.3,-31.4,5.73,2.45,-31.3,23.6
2012-06-03 01:47:00,0.0,,,,,,,,,,,0.95,-27.15,16.70,-47,524,-919,16.4,27.2,-2.5,16.9,2.3,-31.3,5.73,2.45,-31.3,23.6
2012-06-03 01:48:00,0.0,,,,,,,,,,,0.91,-27.16,16.76,-48,524,-919,16.4,27.0,-2.6,16.9,2.3,-31.3,5.73,2.45,-31.3,23.6
2012-06-03 01:49:00,0.0,,,,,,,,,,,0.83,-27.15,16.82,-48,524,-919,16.4,26.9,-2.7,16.9,2.3,-31.3,5.73,2.45,-31.3,23.6
2012-06-03 01:50:00,0.0,,,,,,,,,,,0.85,-27.15,16.87,-48,524,-919,16.4,26.9,-2.6,16.9,2.3,-31.3,5.73,2.45,-31.3,23.6
2012-06-03 01:51:00,0.0,,,,,,,,,,,0.86,-27.15,16.92,-47,524,-918,16.4,26.9,-2.7,16.9,2.3,-31.4,5.73,2.45,-31.3,23.6
2012-06-03 01:52:00,0.0,,,,,,,,,,,0.89,-27.14,16.97,-48,524,-918,16.4,27.0,-2.6,16.9,2.3,-31.4,5.73,2.44,-31.3,23.6
2012-06-03 01:53:00,0.0,,,,,,,,,,,0.93,-27.14,17.02,-48,524,-918,16.4,26.8,-2.7,16.9,2.3,-31.3,5.73,2.45,-31.3,23.6
2012-06-03 01:54:00,0.0,,,,,,,,,,,0.95,-27.14,17.06,-48,524,-918,16.4,26.6,-2.8,16.9,2.3,-31.4,5.73,2.45,-31.3,23.6
2012-06-03 01:55:00,0.0,,,,,,,,,,,0.88,-27.14,17.10,-48,524,-918,16.4,26.7,-2.7,16.9,2.3,-31.4,5.73,2.45,-31.3,23.5
2012-06-03 01:56:00,0.0,,,,,,,,,,,0.84,-27.14,17.14,-47,524,-918,16.4,26.8,-2.7,16.9,2.3,-31.3,5.73,2.45,-31.3,23.6
2012-06-03 01:57:00,0.0,,,,,,,,,,,0.84,-27.14,17.18,-47,524,-919,16.4,26.8,-2.7,16.9,2.3,-31.4,5.73,2.45,-31.3,23.6
2012-06-03 01:58:00,0.0,,,,,,,,,,,0.89,-27.14,17.22,-47,524,-919,16.4,26.9,-2.7,16.9,2.3,-31.4,5.73,2.45,-31.3,23.6
2012-06-03 01:59:00,0.0,,,,,,,,,,,0.91,-27.14,17.25,-47,524,-919,16.4,26.9,-2.6,16.9,2.3,-31.4,5.73,2.45,-31.3,23.6
2012-06-03 02:00:00,0.0,,,,,,,,,,,0.94,-27.13,17.29,-47,524,-919,16.4,27.0,-2.6,16.9,2.3,-31.4,5.73,2.45,-31.3,23.6
2012-06-03 02:01:00,0.0,1.8917,0.0010,401.49,0.20,-0.6,2.3,138.05,30.42,24.65,36.48,0.93,-27.14,17.32,-47,524,-919,16.4,27.1,-2.6,16.9,2.3,-31.4,5.73,2.45,-31.3,23.6
2012-06-03 02:02:00,0.0,1.8918,0.0009,401.46,0.18,-0.3,3.5,138.04,30.42,24.64,36.48,0.85,-27.13,17.35,-47,524,-919,16.4,27.0,-2.6,16.9,2.3,-31.4,5.73,2.46,-31.3,23.6
2012-06-03 02:03:00,0.0,1.8922,0.0007,401.39,0.18,-1.0,0.0,138.04,30.43,24.64,36.48,0.84,-27.13,17.39,-48,524,-918,16.4,26.9,-2.7,16.8,2.3,-31.4,5.73,2.45,-31.3,23.5
2012-06-03 02:04:00,0.0,,,,,,,,,,,0.85,-27.13,17.41,-48,524,-918,16.4,26.9,-2.7,16.9,2.3,-31.4,5.73,2.45,-31.3,23.6
2012-06-03 02:05:00,0.0,,,,,,,,,,,0.89,-27.13,17.44,-48,524,-918,16.4,26.8,-2.7,16.8,2.3,-31.4,5.73,2.45,-31.3,23.5
2012-06-03 02:06:00,0.0,,,,,,,,,,,0.91,-27.12,17.47,-47,524,-918,16.4,26.7,-2.8,16.8,2.3,-31.4,5.73,2.46,-31.3,23.6
2012-06-03 02:07:00,0.0,,,,,,,,,,,0.94,-27.12,17.49,-47,524,-918,16.4,27.0,-2.7,16.8,2.3,-31.4,5.73,2.46,-31.3,23.6
2012-06-03 02:08:00,0.0,,,,,,,,,,,0.91,-27.12,17.51,-48,524,-918,16.4,27.0,-2.6,16.8,2.3,-31.4,5.73,2.46,-31.3,23.6
2012-06-03 02:09:00,0.0,,,,,,,,,,,0.84,-27.12,17.54,-47,524,-919,16.4,26.8,-2.7,16.8,2.3,-31.4,5.73,2.46,-31.2,23.6
2012-06-03 02:10:00,0.0,,,,,,,,,,,0.86,-27.11,17.56,-47,524,-919,16.4,26.9,-2.7,16.9,2.3,-31.4,5.73,2.46,-31.2,23.6
2012-06-03 02:11:00,0.0,,,,,,,,,,,0.89,-27.11,17.58,-47,524,-919,16.4,27.0,-2.6,16.9,2.3,-31.4,5.73,2.46,-31.2,23.6
2012-06-03 02:12:00,0.0,,,,,,,,,,,0.90,-27.11,17.60,-48,524,-919,16.4,27.1,-2.6,16.8,2.3,-31.4,5.73,2.46,-31.2,23.6
2012-06-03 02:13:00,0.0,,,,,,,,,,,0.92,-27.11,17.62,-47,524,-919,16.4,26.9,-2.7,16.9,2.3,-31.4,5.73,2.46,-31.2,23.6
2012-06-03 02:14:00,0.0,,,,,,,,,,,0.94,-27.11,17.64,-48,524,-919,16.4,26.7,-2.7,16.9,2.3,-31.3,5.73,2.45,-31.2,23.6
2012-06-03 02:15:00,0.0,,,,,,,,,,,0.92,-27.11,17.65,-48,524,-919,16.4,26.6,-2.8,16.9,2.3,-31.4,5.73,2.45,-31.2,23.6
2012-06-03 02:16:00,0.0,,,,,,,,,,,0.85,-27.11,17.67,-47,524,-918,16.4,26.6,-2.8,16.8,2.3,-31.4,5.73,2.46,-31.2,23.5
2012-06-03 02:17:00,0.0,,,,,,,,,,,0.83,-27.11,17.69,-47,524,-918,16.4,26.7,-2.8,16.8,2.3,-31.4,5.73,2.45,-31.2,23.5
2012-06-03 02:18:00,0.0,,,,,,,,,,,0.86,-27.11,17.70,-47,524,-918,16.4,27.0,-2.7,16.8,2.3,-31.4,5.73,2.45,-31.2,23.6
2012-06-03 02:19:00,0.0,,,,,,,,,,,0.90,-27.11,17.72,-47,524,-918,16.4,27.1,-2.6,16.8,2.3,-31.4,5.73,2.45,-31.2,23.6
2012-06-03 02:20:00,0.0,,,,,,,,,,,0.93,-27.11,17.73,-47,524,-918,16.4,27.0,-2.6,16.8,2.3,-31.4,5.73,2.45,-31.2,23.6
2012-06-03 02:21:00,0.0,,,,,,,,,,,0.94,-27.11,17.74,-47,524,-918,16.4,26.9,-2.7,16.8,2.3,-31.4,5.73,2.45,-31.2,23.6
2012-06-03 02:22:00,0.0,,,,,,,,,,,0.91,-27.11,17.76,-47,524,-918,16.4,27.0,-2.7,16.8,2.3,-31.4,5.73,2.45,-31.2,23.6
2012-06-03 02:23:00,0.0,,,,,,,,,,,0.87,-27.10,17.72,-47,524,-918,16.4,27.0,-2.7,16.8,2.3,-31.4,5.73,2.45,-31.2,23.5
2012-06-03 02:24:00,0.0,,,,,,,,,,,1.09,-27.11,16.52,-47,524,-919,16.4,27.0,-2.7,16.8,2.3,-31.4,5.73,2.45,-31.2,23.5
2012-06-03 02:25:00,0.0,,,,,,,,,,,1.03,-27.10,14.28,-47,524,-919,16.4,26.9,-2.7,16.8,2.3,-31.4,5.73,2.46,-31.2,23.5
2012-06-03 02:26:00,0.0,,,,,,,,,,,0.95,-27.11,11.88,-48,524,-919,16.4,26.9,-2.7,16.8,2.3,-31.4,5.73,2.45,-31.2,23.5
2012-06-03 02:27:00,0.0,,,,,,,,,,,1.01,-27.13,9.51,-48,524,-919,16.4,26.8,-2.8,16.8,2.3,-31.5,5.73,2.45,-31.2,23.6
2012-06-03 02:28:00,0.0,,,,,,,,,,,0.96,-27.15,7.21,-48,524,-919,16.4,26.8,-2.8,16.8,2.3,-31.5,5.73,2.45,-31.2,23.5
2012-06-03 02:29:00,0.0,,,,,,,,,,,0.93,-27.15,5.01,-47,524,-919,16.4,26.7,-2.8,16.8,2.3,-31.5,5.73,2.45,-31.2,23.5
2012-06-03 02:30:00,0.0,,,,,,,,,,,1.03,-27.15,2.91,-47,524,-919,16.4,26.9,-2.7,16.8,2.3,-31.5,5.73,2.46,-31.2,23.6
2012-06-03 02:31:00,0.0,,,,,,,,,,,1.00,-27.16,0.92,-47,524,-919,16.4,26.9,-2.7,16.8,2.3,-31.5,5.73,2.46,-31.2,23.6
2012-06-03 02:32:00,0.0,,,,,,,,,,,0.92,-27.16,-0.96,-47,524,-919,16.4,27.0,-2.7,16.8,2.3,-31.5,5.73,2.45,-31.2,23.6
2012-06-03 02:33:00,0.0,,,,,,,,,,,0.96,-27.17,-2.64,-47,524,-919,16.4,27.0,-2.6,16.8,2.3,-31.5,5.73,2.46,-31.2,23.6
2012-06-03 02:34:00,0.0,,,,,,,,,,,1.02,-27.16,-4.22,-48,524,-919,16.4,27.0,-2.6,16.8,2.3,-31.5,5.73,2.46,-31.2,23.6
2012-06-03 02:35:00,0.0,,,,,,,,,,,0.98,-27.17,-5.77,-48,524,-919,16.4,26.9,-2.7,16.8,2.3,-31.5,5.73,2.46,-31.2,23.6
2012-06-03 02:36:00,0.0,,,,,,,,,,,0.91,-27.17,-7.19,-47,524,-919,16.4,26.7,-2.8,16.8,2.3,-31.5,5.73,2.46,-31.2,23.6
2012-06-03 02:37:00,0.0,,,,,,,,,,,0.95,-27.17,-8.56,-47,524,-919,16.4,27.0,-2.7,16.8,2.3,-31.5,5.73,2.46,-31.2,23.5
2012-06-03 02:38:00,0.0,,,,,,,,,,,1.02,-27.18,-9.78,-47,524,-919,16.4,27.1,-2.6,16.8,2.3,-31.5,5.73,2.46,-31.2,23.5
2012-06-03 02:39:00,0.0,,,,,,,,,,,0.99,-27.18,-10.94,-47,524,-919,16.4,27.1,-2.6,16.8,2.3,-31.6,5.73,2.46,-31.2,23.5
2012-06-03 02:40:00,0.0,,,,,,,,,,,0.91,-27.19,-12.12,-47,524,-918,16.4,27.2,-2.5,16.8,2.3,-31.6,5.73,2.46,-31.2,23.5
2012-06-03 02:41:00,0.0,,,,,,,,,,,0.92,-27.20,-13.20,-48,524,-918,16.4,27.2,-2.5,16.8,2.3,-31.6,5.73,2.46,-31.2,23.5
2012-06-03 02:42:00,0.0,,,,,,,,,,,0.97,-27.20,-14.23,-48,524,-918,16.4,27.1,-2.6,16.8,2.3,-31.6,5.73,2.46,-31.1,23.5
2012-06-03 02:43:00,0.0,,,,,,,,,,,1.02,-27.21,-15.18,-48,524,-919,16.4,27.1,-2.6,16.8,2.3,-31.6,5.73,2.45,-31.2,23.5
2012-06-03 02:44:00,0.0,,,,,,,,,,,0.97,-27.22,-16.11,-48,524,-919,16.4,27.0,-2.6,16.8,2.3,-31.6,5.73,2.46,-31.2,23.5
2012-06-03 02:45:00,0.0,,,,,,,,,,,0.91,-27.23,-16.98,-48,524,-919,16.4,27.2,-2.5,16.8,2.3,-31.6,5.73,2.45,-31.2,23.6
2012-06-03 02:46:00,0.0,,,,,,,,,,,0.91,-27.24,-17.77,-48,524,-919,16.4,27.2,-2.5,16.8,2.3,-31.6,5.73,2.45,-31.1,23.6
2012-06-03 02:47:00,0.0,,,,,,,,,,,0.95,-27.25,-18.46,-48,524,-919,16.4,27.3,-2.5,16.8,2.2,-31.6,5.73,2.45,-31.1,23.6
2012-06-03 02:48:00,0.0,,,,,,,,,,,0.99,-27.26,-19.21,-48,524,-919,16.4,27.3,-2.5,16.9,2.3,-31.6,5.73,2.45,-31.1,23.6
2012-06-03 02:49:00,0.0,,,,,,,,,,,0.99,-27.27,-19.91,-48,524,-919,16.4,27.1,-2.5,16.9,2.3,-31.6,5.73,2.45,-31.1,23.6
2012-06-03 02:50:00,0.0,,,,,,,,,,,0.95,-27.28,-20.57,-48,524,-919,16.4,27.3,-2.4,16.8,2.2,-31.7,5.73,2.45,-31.1,23.5
2012-06-03 02:51:00,0.0,,,,,,,,,,,0.91,-27.29,-21.19,-48,524,-919,16.4,27.3,-2.5,16.8,2.2,-31.8,5.73,2.45,-31.1,23.6
2012-06-03 02:52:00,0.0,,,,,,,,,,,0.93,-27.30,-21.77,-48,524,-919,16.4,27.1,-2.6,16.9,2.2,-31.7,5.73,2.46,-31.1,23.5
2012-06-03 02:53:00,0.0,,,,,,,,,,,0.97,-27.32,-22.31,-48,524,-919,16.4,27.3,-2.5,16.8,2.2,-31.8,5.73,2.45,-31.1,23.5
2012-06-03 02:54:00,0.0,,,,,,,,,,,0.99,-27.33,-22.82,-48,524,-919,16.4,27.4,-2.4,16.8,2.2,-31.7,5.73,2.45,-31.1,23.6
2012-06-03 02:55:00,0.0,,,,,,,,,,,0.98,-27.35,-23.31,-48,524,-918,16.4,27.3,-2.4,16.9,2.2,-31.7,5.73,2.46,-31.1,23.6
2012-06-03 02:56:00,0.0,,,,,,,,,,,0.92,-27.35,-23.75,-48,524,-918,16.4,27.3,-2.5,16.9,2.2,-31.7,5.73,2.45,-31.1,23.6
2012-06-03 02:57:00,0.0,,,,,,,,,,,0.91,-27.36,-24.19,-48,524,-919,16.4,27.2,-2.5,16.9,2.2,-31.7,5.73,2.46,-31.1,23.5
2012-06-03 02:58:00,0.0,,,,,,,,,,,0.92,-27.38,-24.59,-48,524,-919,16.4,27.3,-2.5,16.9,2.2,-31.7,5.73,2.46,-31.1,23.5
2012-06-03 02:59:00,0.0,,,,,,,,,,,0.94,-27.39,-24.97,-48,524,-919,16.4,27.5,-2.4,16.9,2.2,-31.8,5.73,2.46,-31.1,23.5
2012-06-03 03:00:00,0.0,,,,,,,,,,,0.94,-27.41,-25.33,-48,524,-919,16.4,27.6,-2.3,16.9,2.2,-31.7,5.73,2.46,-31.1,23.5
2012-06-03 03:01:00,0.0,1.8917,0.0010,401.49,0.20,-0.6,2.3,138.05,30.42,24.65,36.48,0.99,-27.41,-25.67,-48,524,-919,16.4,27.5,-2.4,16.9,2.2,-31.9,5.73,2.46,-31.1,23.5
2012-06-03 03:02:00,0.0,1.8918,0.0009,401.46,0.18,-0.3,3.5,138.04,30.42,24.64,36.48,0.99,-27.42,-25.99,-48,524,-919,16.4,27.3,-2.4,16.8,2.2,-31.9,5.73,2.45,-31.1,23.5
2012-06-03 03:03:00,0.0,1.8922,0.0007,401.39,0.18,-1.0,0.0,138.04,30.43,24.64,36.48,0.93,-27.44,-26.28,-48,524,-919,16.4,27.2,-2.5,16.9,2.2,-31.9,5.73,2.46,-31.1,23.6
2012-06-03 03:04:00,0.0,,,,,,,,,,,0.90,-27.45,-26.57,-48,524,-920,16.4,27.4,-2.4,16.9,2.2,-31.9,5.73,2.45,-31.1,23.6
2012-06-03 03:05:00,0.0,,,,,,,,,,,0.91,-27.46,-26.84,-48,525,-919,16.4,27.4,-2.4,16.9,2.2,-31.9,5.73,2.46,-31.1,23.6
2012-06-03 03:06:00,0.0,,,,,,,,,,,0.93,-27.47,-27.08,-48,525,-919,16.5,27.4,-2.4,16.9,2.2,-31.9,5.73,2.45,-31.1,23.6
2012-06-03 03:07:00,0.0,,,,,,,,,,,0.96,-27.48,-27.31,-48,524,-919,16.4,27.4,-2.4,16.9,2.2,-31.9,5.73,2.45,-31.1,23.6
2012-06-03 03:08:00,0.0,,,,,,,,,,,0.93,-27.49,-27.48,-48,524,-919,16.4,27.3,-2.4,16.9,2.2,-32.0,5.73,2.45,-31.1,23.5
2012-06-03 03:09:00,0.0,,,,,,,,,,,0.96,-27.50,-27.24,-48,524,-919,16.5,27.3,-2.4,16.9,2.2,-32.0,5.73,2.45,-31.1,23.6
2012-06-03 03:10:00,0.0,,,,,,,,,,,1.00,-27.51,-27.32,-48,524,-919,16.5,27.4,-2.4,16.9,2.2,-32.0,5.73,2.45,-31.1,23.6
2012-06-03 03:11:00,0.0,,,,,,,,,,,0.98,-27.51,-27.50,-47,524,-919,16.4,27.4,-2.4,16.9,2.2,-32.0,5.73,2.46,-31.1,23.6
2012-06-03 03:12:00,0.0,,,,,,,,,,,0.87,-27.53,-27.33,-48,524,-919,16.4,27.6,-2.3,16.9,2.2,-32.0,5.73,2.45,-31.1,23.6
2012-06-03 03:13:00,0.0,,,,,,,,,,,0.95,-27.54,-27.30,-48,524,-919,16.5,27.4,-2.4,16.9,2.2,-32.0,5.73,2.45,-31.1,23.5
2012-06-03 03:14:00,0.0,,,,,,,,,,,0.92,-27.55,-27.46,-48,524,-919,16.4,27.3,-2.5,16.9,2.2,-32.0,5.73,2.45,-31.0,23.5
2012-06-03 03:15:00,0.0,,,,,,,,,,,0.92,-27.55,-27.47,-48,525,-919,16.5,27.2,-2.5,16.9,2.2,-32.0,5.73,2.46,-31.0,23.6
2012-06-03 03:16:00,0.0,,,,,,,,,,,0.92,-27.55,-27.29,-48,525,-920,16.5,27.0,-2.6,16.9,2.2,-32.0,5.73,2.45,-31.0,23.6